Tiempo atmosférico en la estación meteorológica de Hermigua, Santa Cruz de Tenerife (252 m.)



Fecha
DESCASC
Temp. máxima en grados centígrados (hora)
DESCASC
Temp. mínima en grados centígrados (hora)
DESCASC
Temp. media en grados centígrados
DESCASC
Racha de viento máxima en m/sg (hora)
DESCASC
Velocidad máxima media en intervalos de 10 minutos(hora)
DESCASC
Precipitaciones diarias en mm
DESCASC
Precipitaciones de 00:00 a 06:00 en mm
DESCASC
Precipitaciones de 06:00 a 12:00 en mm
DESCASC
Precipitaciones de 12:00 a 18:00 en mm
DESCASC
Precipitaciones de 18:00 a 24:00 en mm
DESCASC
19-09-2019 24 (13:50) 19.2 (06:50) 21.6 6.11 (14:10) 3.06 (13:40) 0 0 0 0 0
18-09-2019 -- (--) -- (--) -- -- (--) -- (--) -- 0 0 -- 0
17-09-2019 23.7 (14:40) 20 (00:00) 21.9 5.56 (13:40) 2.78 (15:20) 0 0 0 0 0
16-09-2019 22.5 (13:30) 19.1 (00:00) 20.8 5.28 (06:00) 3.06 (07:30) 0 0 0 0 0
15-09-2019 24.5 (13:20) 16.7 (00:00) 20.6 6.94 (12:50) 3.33 (13:50) 0 0 0 0 0
14-09-2019 24.5 (14:40) 19.1 (00:00) 21.8 5.83 (12:10) 3.06 (12:10) 0 0 0 0 0
13-09-2019 24.4 (15:10) 19.9 (00:00) 22.1 9.17 (06:20) 3.61 (05:10) 0 0 0 0 0
12-09-2019 23.4 (16:30) 19.7 (00:00) 21.6 7.78 (04:40) 3.61 (07:50) 0 0 0 0 0
11-09-2019 24.3 (14:40) 20.2 (00:00) 22.3 8.61 (18:40) 3.33 (18:20) 0 0 0 0 0
10-09-2019 24.5 (16:20) 19.7 (08:00) 22.1 7.78 (11:50) 3.61 (17:10) 0 0 0 0 0
09-09-2019 24.5 (16:00) 19.7 (06:10) 22.1 6.11 (00:30) 3.06 (00:30) 0 0 0 0 0
08-09-2019 24.9 (15:10) 19.5 (00:00) 22.2 7.22 (15:30) 4.44 (14:00) 0 0 0 0 0
07-09-2019 25.6 (15:40) 20.3 (00:00) 22.9 8.33 (14:20) 3.89 (14:20) 0 0 0 0 0
06-09-2019 23.2 (13:00) 20.5 (00:00) 21.9 6.94 (15:30) 3.61 (16:30) 0 0 0 0 0
05-09-2019 25.2 (17:00) 19.5 (00:00) 22.4 7.5 (23:50) 3.61 (13:50) 0 0 0 0 0
04-09-2019 24.7 (14:50) 18.5 (00:00) 21.6 5.56 (14:00) 3.06 (17:00) 0 0 0 0 0
03-09-2019 24 (14:40) 17.9 (00:00) 20.9 6.39 (13:20) 3.33 (13:10) 0 0 0 0 0
02-09-2019 24.6 (15:40) 19.4 (00:00) 22 6.39 (04:10) 3.06 (04:10) 0 0 0 0 0
01-09-2019 24.3 (15:20) 20.5 (00:00) 22.4 6.67 (13:00) 3.33 (14:30) 0 0 0 0 0
31-08-2019 24.2 (15:00) 20.6 (00:00) 22.4 7.22 (15:50) 2.78 (12:50) 0 0 0 0 0
30-08-2019 24.8 (16:40) 17.9 (00:00) 21.3 7.5 (13:30) 3.33 (14:30) 0 0 0 0 0
29-08-2019 25 (14:00) 20.2 (00:00) 22.6 7.22 (15:40) 3.61 (13:10) 0 0 0 0 0
28-08-2019 24.3 (16:50) 20.4 (00:00) 22.3 6.39 (11:20) 3.06 (10:40) 0 0 0 0 0
27-08-2019 25 (16:30) 20.2 (00:00) 22.6 6.94 (13:30) 3.06 (12:20) 0 0 0 0 0
26-08-2019 23.9 (16:00) 20 (00:00) 21.9 6.39 (16:00) 3.33 (16:10) 0 0 0 0 0
25-08-2019 26.7 (14:10) 19.2 (00:00) 23 7.5 (16:50) 3.33 (14:50) 0 0 0 0 0
24-08-2019 30.4 (17:10) 18.3 (00:00) 24.3 6.11 (12:30) 3.06 (15:20) 0 0 0 0 0
23-08-2019 25.2 (17:20) 16.9 (00:00) 21.1 6.94 (13:30) 3.33 (15:40) 0 0 0 0 0
22-08-2019 24.7 (16:30) 19.5 (00:00) 22.1 7.22 (14:50) 3.33 (14:50) 0 0 0 0 0
21-08-2019 22.8 (15:40) 20.1 (00:00) 21.4 7.5 (18:30) 3.33 (08:50) 0 0 0 0 0

Gráficas

Temp. máximas Temp. mínimas Temp. medias Precipitaciones Rachas de viento máximas Velocidades máximas media en intervalos de 10 minutos

Datos horarios

Fecha y hora oficial Temperatura (ºC) Velocidad del viento (km/h) Dirección del viento Racha (km/h) Dirección de racha Precipitación (mm) Presión (hPa) Tendencia (hPa) Humedad (%)
2019-09-19 23:00:00 20.3 5 Sudeste 9 Noroeste 0 -- -- 70
2019-09-19 22:00:00 20.7 6 Nordeste 17 Nordeste 0 -- -- 80
2019-09-19 21:00:00 21 5 Nordeste 16 Nordeste 0 -- -- 83
2019-09-19 20:00:00 21.3 6 Nordeste 20 Nordeste 0 -- -- 81
2019-09-19 19:00:00 22.1 8 Nordeste 21 Norte 0 -- -- 78
2019-09-19 18:00:00 23.9 8 Nordeste 18 Norte 0 -- -- 69
2019-09-19 17:00:00 23.7 9 Nordeste 22 Nordeste 0 -- -- 70
2019-09-19 16:00:00 23.4 9 Nordeste 21 Nordeste 0 -- -- 72
2019-09-19 15:00:00 23.6 10 Nordeste 22 Nordeste 0 -- -- 72
2019-09-19 14:00:00 24 9 Nordeste 21 Nordeste 0 -- -- 67
2019-09-19 13:00:00 23.3 10 Nordeste 22 Nordeste 0 -- -- 66
2019-09-19 12:00:00 23.3 8 Nordeste 18 Nordeste 0 -- -- 69
2019-09-19 11:00:00 22.2 7 Nordeste 20 Nordeste 0 -- -- 78
2019-09-19 10:00:00 21.8 5 Este 13 Nordeste 0 -- -- 75
2019-09-19 09:00:00 20.4 5 Sur 9 Sudoeste 0 -- -- 81
2019-09-19 08:00:00 20.2 5 Nordeste 13 Sudeste 0 -- -- 82
2019-09-19 07:00:00 19.3 5 Sur 12 Sur 0 -- -- 81
2019-09-19 06:00:00 19.6 5 Sur 11 Sur 0 -- -- 83
2019-09-19 05:00:00 20.3 3 Nordeste 11 Sudeste 0 -- -- 83
2019-09-19 04:00:00 20.4 4 Noroeste 12 Oeste 0 -- -- 80
2019-09-19 03:00:00 20.4 5 Nordeste 15 Nordeste 0 -- -- 83
2019-09-19 02:00:00 20.4 10 Nordeste 16 Norte 0 -- -- 85
2019-09-19 01:00:00 20.6 4 Nordeste 11 Nordeste 0 -- -- 83
2019-09-19 00:00:00 20.7 4 Nordeste 17 Nordeste 0 -- -- 84
2019-09-18 23:00:00 20.8 5 Nordeste 13 Nordeste 0 -- -- 83
2019-09-18 22:00:00 21.1 3 Sur 15 Este 0 -- -- 82
2019-09-18 21:00:00 21.1 4 Nordeste 14 Nordeste 0 -- -- 82
2019-09-18 20:00:00 21.4 4 Nordeste 12 Nordeste 0 -- -- 81
2019-09-18 19:00:00 21.6 6 Nordeste 18 Nordeste 0 -- -- 77
2019-09-18 18:00:00 22.3 7 Nordeste 17 Nordeste 0 -- -- 74
2019-09-18 17:00:00 23.3 7 Nordeste 22 Este 0 -- -- 69
2019-09-18 16:00:00 23.8 8 Norte 17 Norte 0 -- -- 67
2019-09-18 15:00:00 23.9 8 Nordeste 20 Norte 0 -- -- 65
2019-09-18 14:00:00 -- -- -- -- -- -- -- -- --
2019-09-18 13:00:00 23.4 8 Nordeste 17 Norte 0 -- -- 65
2019-09-18 12:00:00 22.1 8 Norte 18 Nordeste 0 -- -- 71
2019-09-18 11:00:00 21.3 6 Nordeste 17 Nordeste 0 -- -- 73
2019-09-18 10:00:00 21.1 5 Sur 12 Sudoeste 0 -- -- 73
2019-09-18 09:00:00 19.9 7 Sur 11 Sur 0 -- -- 75
2019-09-18 08:00:00 19.7 4 Sudeste 12 Sur 0 -- -- 77
2019-09-18 07:00:00 19.6 5 Sur 13 Sudoeste 0 -- -- 75
2019-09-18 06:00:00 19.5 4 Sur 10 Sur 0 -- -- 73
2019-09-18 05:00:00 19.8 5 Sudeste 9 Sudeste 0 -- -- 76
2019-09-18 04:00:00 19.7 6 Sur 10 Sur 0 -- -- 74
2019-09-18 03:00:00 19.9 5 Sur 9 Sur 0 -- -- 74
2019-09-18 02:00:00 20.2 0 Calma 9 Sur 0 -- -- 79
2019-09-18 01:00:00 20 6 Sur 11 Sur 0 -- -- 78
2019-09-18 00:00:00 20 6 Sur 10 Sudeste 0 -- -- 74
2019-09-17 23:00:00 20.8 3 Este 6 Nordeste 0 -- -- 80
2019-09-17 22:00:00 21 2 Este 7 Nordeste 0 -- -- 83
2019-09-17 21:00:00 21 4 Nordeste 12 Norte 0 -- -- 82
2019-09-17 20:00:00 21 5 Nordeste 15 Nordeste 0 -- -- 81
2019-09-15 17:00:00 23.4 9 Nordeste 24 Norte 0 -- -- 78
2019-09-15 16:00:00 24 8 Nordeste 20 Norte 0 -- -- 75
2019-09-15 15:00:00 24 9 Nordeste 21 Norte 0 -- -- 76
2019-09-15 14:00:00 24.4 8 Nordeste 22 Sudeste 0 -- -- 73
2019-09-15 13:00:00 24.1 8 Nordeste 25 Nordeste 0 -- -- 73
2019-09-15 12:00:00 23.5 9 Nordeste 19 Nordeste 0 -- -- 71
2019-09-15 11:00:00 22.9 8 Nordeste 19 Nordeste 0 -- -- 73
2019-09-15 10:00:00 21.2 4 Sudoeste 8 Sur 0 -- -- 76
2019-09-15 09:00:00 17.5 3 Sur 9 Sur 0 -- -- 89
2019-09-15 08:00:00 16.8 4 Sur 10 Sur 0 -- -- 88
2019-09-15 07:00:00 16.8 5 Sur 9 Sur 0 -- -- 89
2019-09-15 06:00:00 16.8 4 Sur 8 Sur 0 -- -- 86
2019-09-15 05:00:00 17.4 5 Sur 10 Sur 0 -- -- 81
2019-09-15 04:00:00 19.1 6 Sur 14 Sudeste 0 -- -- 73
2019-09-15 03:00:00 20.4 4 Sur 10 Sur 0 -- -- 71
2019-09-15 02:00:00 20.4 4 Sur 8 Sur 0 -- -- 73
2019-09-15 01:00:00 20.4 4 Sur 14 Sur 0 -- -- 72
2019-09-15 00:00:00 20.5 5 Sur 9 Sur 0 -- -- 79
2019-09-14 23:00:00 20.8 2 Sudeste 12 Norte 0 -- -- 86
2019-09-14 22:00:00 20.8 5 Nordeste 17 Nordeste 0 -- -- 86
2019-09-14 21:00:00 20.9 6 Nordeste 15 Norte 0 -- -- 86
2019-09-14 20:00:00 21 8 Nordeste 19 Nordeste 0 -- -- 86
2019-09-14 19:00:00 21.1 8 Nordeste 17 Nordeste 0 -- -- 87
2019-09-14 18:00:00 21.4 7 Nordeste 16 Nordeste 0 -- -- 84
2019-09-14 17:00:00 21.9 6 Nordeste 15 Norte 0 -- -- 81
2019-09-14 16:00:00 22.4 7 Nordeste 19 Norte 0 -- -- 79
2019-09-14 15:00:00 23.6 10 Nordeste 21 Norte 0 -- -- 73
2019-09-14 14:00:00 23.6 10 Nordeste 20 Nordeste 0 -- -- 71
2019-09-14 13:00:00 23.9 7 Nordeste 21 Nordeste 0 -- -- 68
2019-09-14 12:00:00 23.3 9 Nordeste 21 Nordeste 0 -- -- 69
2019-09-14 11:00:00 22.2 5 Nordeste 13 Nordeste 0 -- -- 72
2019-09-14 10:00:00 21 3 Nordeste 11 Sur 0 -- -- 77
2019-09-14 09:00:00 19.6 6 Sur 12 Sur 0 -- -- 73
2019-09-14 08:00:00 19.2 6 Sur 14 Sur 0 -- -- 73
2019-09-14 07:00:00 19.3 6 Sur 12 Sur 0 -- -- 75
2019-09-14 06:00:00 19.8 2 Nordeste 9 Sur 0 -- -- 81
2019-09-14 05:00:00 19.5 2 Sur 8 Este 0 -- -- 81
2019-09-14 04:00:00 19.4 6 Sur 10 Sur 0 -- -- 78
2019-09-14 03:00:00 19.8 0 Calma 8 Sudeste 0 -- -- 81
2019-09-14 02:00:00 19.6 5 Sur 9 Sudeste 0 -- -- 77
2019-09-14 01:00:00 20.1 4 Este 7 Sudeste 0 -- -- 80
2019-09-14 00:00:00 20.1 3 Este 21 Nordeste 0 -- -- 79
2019-09-13 23:00:00 20.5 6 Norte 15 Nordeste 0 -- -- 78
2019-09-13 22:00:00 20.7 6 Nordeste 14 Este 0 -- -- 81
2019-09-13 21:00:00 20.8 4 Nordeste 16 Nordeste 0 -- -- 82
2019-09-13 20:00:00 21 5 Nordeste 22 Nordeste 0 -- -- 80
2019-09-13 19:00:00 21.3 8 Nordeste 18 Nordeste 0 -- -- 77
2019-09-13 18:00:00 22 9 Nordeste 19 Nordeste 0 -- -- 77
2019-09-13 17:00:00 22.2 10 Nordeste 21 Norte 0 -- -- 77
2019-09-13 16:00:00 23.3 11 Nordeste 22 Nordeste 0 -- -- 72
2019-09-13 15:00:00 24.1 10 Nordeste 22 Nordeste 0 -- -- 65
2019-09-13 14:00:00 23.8 10 Nordeste 21 Norte 0 -- -- 66
2019-09-13 13:00:00 23.6 8 Norte 22 Nordeste 0 -- -- 69
2019-09-13 12:00:00 22.3 9 Norte 24 Nordeste 0 -- -- 74
2019-09-13 11:00:00 21.8 11 Nordeste 28 Nordeste 0 -- -- 76
2019-09-13 10:00:00 20.7 10 Norte 27 Norte 0 -- -- 82
2019-09-13 09:00:00 20.4 13 Norte 28 Norte 0 -- -- 81
2019-09-13 08:00:00 20.1 11 Nordeste 27 Nordeste 0 -- -- 84
2019-09-13 07:00:00 20.1 11 Nordeste 33 Nordeste 0 -- -- 81
2019-09-13 06:00:00 20 11 Nordeste 32 Nordeste 0 -- -- 84
2019-09-13 05:00:00 20 11 Nordeste 30 Nordeste 0 -- -- 83
2019-09-13 04:00:00 20.1 10 Nordeste 26 Nordeste 0 -- -- 82
2019-09-13 03:00:00 20.1 10 Nordeste 24 Nordeste 0 -- -- 82
2019-09-13 02:00:00 20 9 Nordeste 23 Nordeste 0 -- -- 81
2019-09-13 01:00:00 20 6 Norte 22 Nordeste 0 -- -- 81
2019-09-13 00:00:00 20.2 8 Nordeste 22 Nordeste 0 -- -- 80
2019-09-12 23:00:00 20.2 6 Nordeste 22 Nordeste 0 -- -- 80
2019-09-12 22:00:00 20.3 6 Norte 21 Norte 0 -- -- 80
2019-09-12 21:00:00 20.4 6 Nordeste 17 Nordeste 0 -- -- 78
2019-09-12 20:00:00 20.6 6 Nordeste 22 Nordeste 0 -- -- 76
2019-09-12 19:00:00 21 7 Nordeste 23 Nordeste 0 -- -- 75
2019-09-12 18:00:00 21.4 10 Nordeste 22 Nordeste 0 -- -- 73
2019-09-12 17:00:00 23.2 10 Norte 26 Nordeste 0 -- -- 65
2019-09-12 16:00:00 23.2 10 Nordeste 25 Nordeste 0 -- -- 66
2019-09-12 15:00:00 23 10 Norte 25 Norte 0 -- -- 64
2019-09-12 14:00:00 22 10 Nordeste 22 Nordeste 0 -- -- 66
2019-09-12 13:00:00 21.7 10 Norte 24 Nordeste 0 -- -- 70
2019-09-12 12:00:00 21.5 9 Nordeste 24 Nordeste 0 -- -- 68
2019-09-12 11:00:00 21.2 10 Norte 23 Nordeste 0 -- -- 72
2019-09-12 10:00:00 20.8 10 Norte 26 Nordeste 0 -- -- 69
2019-09-12 09:00:00 20.2 6 Nordeste 22 Noroeste 0 -- -- 68
2019-09-12 08:00:00 19.7 8 Nordeste 27 Norte 0 -- -- 71
2019-09-12 07:00:00 19.8 6 Nordeste 22 Nordeste 0 -- -- 78
2019-09-12 06:00:00 19.9 8 Nordeste 27 Norte 0 -- -- 73
2019-09-12 05:00:00 19.8 10 Nordeste 28 Nordeste 0 -- -- 68
2019-09-12 04:00:00 20 11 Nordeste 27 Nordeste 0 -- -- 73
2019-09-12 03:00:00 20.2 9 Nordeste 25 Nordeste 0 -- -- 77
2019-09-12 02:00:00 20.2 9 Nordeste 25 Norte 0 -- -- 77
2019-09-12 01:00:00 20.2 7 Nordeste 25 Nordeste 0 -- -- 74
2019-09-12 00:00:00 20.3 8 Nordeste 21 Nordeste 0 -- -- 76
2019-09-11 23:00:00 20.3 7 Norte 24 Norte 0 -- -- 78
2019-09-11 22:00:00 20.3 8 Norte 22 Nordeste 0 -- -- 78
2019-09-11 21:00:00 20.5 9 Nordeste 22 Nordeste 0 -- -- 77
2019-09-11 20:00:00 20.7 6 Nordeste 24 Nordeste 0 -- -- 79
2019-09-11 19:00:00 21.3 9 Nordeste 31 Nordeste 0 -- -- 78
2019-09-11 18:00:00 22 8 Norte 24 Nordeste 0 -- -- 76
2019-09-11 17:00:00 24 10 Norte 26 Nordeste 0 -- -- 61
2019-09-11 16:00:00 23.3 8 Norte 24 Norte 0 -- -- 58
2019-09-11 15:00:00 23.8 10 Nordeste 23 Nordeste 0 -- -- 62
2019-09-11 14:00:00 23.6 12 Nordeste 28 Nordeste 0 -- -- 60
2019-09-11 13:00:00 23.4 9 Norte 22 Norte 0 -- -- 64
2019-09-11 12:00:00 21.9 6 Norte 24 Nordeste 0 -- -- 65
2019-09-11 11:00:00 21.7 6 Nordeste 18 Norte 0 -- -- 70
2019-09-11 10:00:00 21.3 8 Norte 21 Norte 0 -- -- 68
2019-09-11 09:00:00 20.5 6 Norte 19 Norte 0 -- -- 74
2019-09-11 08:00:00 20.3 7 Nordeste 23 Nordeste 0 -- -- 78
2019-09-11 07:00:00 20.4 5 Noroeste 18 Norte 0 -- -- 77
2019-09-11 06:00:00 20.2 5 Nordeste 19 Nordeste 0 -- -- 79
2019-09-11 05:00:00 20.4 8 Norte 22 Nordeste 0 -- -- 83
2019-09-11 04:00:00 20.4 7 Nordeste 19 Nordeste 0 -- -- 80
2019-09-11 03:00:00 20.6 6 Nordeste 21 Noroeste 0 -- -- 85
2019-09-11 02:00:00 20.7 7 Nordeste 24 Nordeste 0 -- -- 84
2019-09-11 01:00:00 20.8 7 Nordeste 19 Nordeste 0 -- -- 84
2019-09-11 00:00:00 20.9 3 Nordeste 14 Nordeste 0 -- -- 82
2019-09-10 23:00:00 21 6 Nordeste 15 Nordeste 0 -- -- 83
2019-09-10 22:00:00 21.2 8 Nordeste 23 Nordeste 0 -- -- 80
2019-09-10 21:00:00 21.2 7 Nordeste 18 Norte 0 -- -- 85
2019-09-10 20:00:00 21.5 8 Nordeste 21 Nordeste 0 -- -- 83
2019-09-10 19:00:00 21.7 9 Nordeste 21 Nordeste 0 -- -- 83
2019-09-10 18:00:00 22.9 9 Nordeste 23 Norte 0 -- -- 77
2019-09-10 17:00:00 24.2 11 Nordeste 24 Nordeste 0 -- -- 69
2019-09-10 16:00:00 24.2 10 Nordeste 23 Norte 0 -- -- 69
2019-09-10 15:00:00 24.1 10 Nordeste 25 Nordeste 0 -- -- 69
2019-09-10 14:00:00 24.1 9 Nordeste 22 Nordeste 0 -- -- 70
2019-09-10 13:00:00 23.6 9 Nordeste 21 Nordeste 0 -- -- 69
2019-09-10 12:00:00 23.3 10 Nordeste 28 Norte 0 -- -- 71
2019-09-10 11:00:00 22.1 9 Nordeste 21 Nordeste 0 -- -- 72
2019-09-10 10:00:00 21.6 3 Sur 10 Este 0 -- -- 72
2019-09-10 09:00:00 20.4 5 Sur 10 Sudeste 0 -- -- 73
2019-09-10 08:00:00 19.7 6 Sur 12 Sur 0 -- -- 74
2019-09-10 07:00:00 20 3 Sur 10 Sudeste 0 -- -- 74
2019-09-10 06:00:00 20.1 3 Sur 9 Sur 0 -- -- 73
2019-09-10 05:00:00 20.2 3 Sur 8 Sudeste 0 -- -- 73
2019-09-10 04:00:00 20.1 3 Sur 9 Sur 0 -- -- 73
2019-09-10 03:00:00 20 5 Sur 10 Sudeste 0 -- -- 74
2019-09-10 02:00:00 20.6 4 Sudeste 9 Sur 0 -- -- 72
2019-09-10 01:00:00 21 3 Este 8 Sudeste 0 -- -- 77
2019-09-10 00:00:00 20.9 4 Sudeste 7 Sur 0 -- -- 72
2019-09-09 23:00:00 20.9 0 Calma 13 Nordeste 0 -- -- 80
2019-09-09 22:00:00 21 4 Nordeste 12 Nordeste 0 -- -- 80
2019-09-09 21:00:00 21.1 6 Nordeste 13 Norte 0 -- -- 80
2019-09-09 20:00:00 21.3 4 Nordeste 14 Norte 0 -- -- 80
2019-09-09 19:00:00 21.7 4 Nordeste 12 Nordeste 0 -- -- 79
2019-09-09 18:00:00 21.8 7 Nordeste 17 Norte 0 -- -- 78
2019-09-09 17:00:00 22.7 8 Nordeste 20 Nordeste 0 -- -- 74
2019-09-09 16:00:00 24.5 11 Nordeste 22 Nordeste 0 -- -- 68
2019-09-09 15:00:00 24.4 10 Norte 20 Noroeste 0 -- -- 67
2019-09-09 14:00:00 24.2 10 Nordeste 20 Norte 0 -- -- 67
2019-09-09 13:00:00 23.4 10 Norte 21 Norte 0 -- -- 70
2019-09-09 12:00:00 22.7 6 Norte 19 Norte 0 -- -- 74
2019-09-09 11:00:00 21.4 7 Nordeste 19 Nordeste 0 -- -- 78
2019-09-09 10:00:00 21.1 7 Norte 15 Nordeste 0 -- -- 80
2019-09-09 09:00:00 20.8 5 Norte 19 Este 0 -- -- 79
2019-09-09 08:00:00 20.4 6 Sur 13 Sur 0 -- -- 74
2019-09-09 07:00:00 19.9 7 Sur 12 Sudeste 0 -- -- 81
2019-09-09 06:00:00 19.8 5 Sur 10 Sur 0 -- -- 76
2019-09-09 05:00:00 20.3 3 Sur 12 Nordeste 0 -- -- 85
2019-09-09 04:00:00 20.4 5 Nordeste 17 Norte 0 -- -- 89
2019-09-09 03:00:00 20.6 8 Nordeste 15 Nordeste 0 -- -- 89
2019-09-09 02:00:00 20.7 6 Nordeste 15 Norte 0 -- -- 89
2019-09-09 01:00:00 20.8 9 Nordeste 22 Nordeste 0 -- -- 89
2019-09-09 00:00:00 21 9 Nordeste 18 Norte 0 -- -- 88
2019-09-08 23:00:00 21.2 8 Nordeste 22 Nordeste 0 -- -- 88
2019-09-08 22:00:00 21.3 10 Norte 24 Norte 0 -- -- 89
2019-09-08 21:00:00 21.5 5 Nordeste 15 Nordeste 0 -- -- 86
2019-09-08 20:00:00 21.6 6 Nordeste 17 Norte 0 -- -- 85
2019-09-08 19:00:00 22.1 9 Nordeste 20 Nordeste 0 -- -- 83
2019-09-08 18:00:00 22.5 11 Norte 20 Norte 0 -- -- 80
2019-09-08 17:00:00 23.3 9 Nordeste 22 Nordeste 0 -- -- 76
2019-09-08 16:00:00 24.7 10 Nordeste 26 Nordeste 0 -- -- 67
2019-09-08 15:00:00 24.4 12 Nordeste 24 Nordeste 0 -- -- 63
2019-09-08 14:00:00 23.8 16 Nordeste 25 Nordeste 0 -- -- 70
2019-09-08 13:00:00 24.2 10 Nordeste 20 Nordeste 0 -- -- 62
2019-09-08 12:00:00 23.6 7 Nordeste 16 Norte 0 -- -- 64
2019-09-08 11:00:00 22.4 6 Nordeste 17 Nordeste 0 -- -- 73
2019-09-08 10:00:00 21.6 5 Norte 12 Nordeste 0 -- -- 73
2019-09-08 09:00:00 20.8 3 Nordeste 10 Nordeste 0 -- -- 79
2019-09-08 08:00:00 20.3 0 Calma 9 Nordeste 0 -- -- 79
2019-09-08 07:00:00 20.4 6 Nordeste 11 Sudoeste 0 -- -- 79
2019-09-08 06:00:00 20.2 3 Sur 9 Este 0 -- -- 78
2019-09-08 05:00:00 19.8 4 Sur 12 Sur 0 -- -- 73
2019-09-08 04:00:00 19.5 6 Sur 10 Sudeste 0 -- -- 70
2019-09-08 03:00:00 19.9 6 Sur 12 Sur 0 -- -- 69
2019-09-08 02:00:00 20.7 3 Nordeste 11 Nordeste 0 -- -- 71
2019-09-08 01:00:00 20.8 4 Nordeste 12 Nordeste 0 -- -- 72
2019-09-08 00:00:00 20.9 4 Nordeste 11 Nordeste 0 -- -- 72
2019-09-07 23:00:00 20.9 4 Norte 12 Nordeste 0 -- -- 75
2019-09-07 22:00:00 21 7 Nordeste 17 Nordeste 0 -- -- 74
2019-09-07 21:00:00 21.2 6 Este 18 Norte 0 -- -- 72
2019-09-07 20:00:00 21.5 7 Nordeste 22 Nordeste 0 -- -- 71
2019-09-07 19:00:00 22 7 Este 21 Noroeste 0 -- -- 71
2019-09-07 18:00:00 22.6 8 Nordeste 23 Nordeste 0 -- -- 69
2019-09-07 17:00:00 23.1 10 Nordeste 28 Norte 0 -- -- 70
2019-09-07 16:00:00 25.5 12 Norte 27 Norte 0 -- -- 60
2019-09-07 15:00:00 25 13 Nordeste 30 Este 0 -- -- 60
2019-09-07 14:00:00 24.4 12 Nordeste 27 Nordeste 0 -- -- 57
2019-09-07 13:00:00 24.2 10 Nordeste 21 Nordeste 0 -- -- 56
2019-09-07 12:00:00 22.6 7 Nordeste 17 Este 0 -- -- 64
2019-09-07 11:00:00 21.9 5 Nordeste 12 Norte 0 -- -- 70
2019-09-07 10:00:00 21.3 4 Norte 13 Nordeste 0 -- -- 69
2019-09-07 09:00:00 20.7 5 Nordeste 17 Nordeste 0 -- -- 70
2019-09-07 08:00:00 20.5 5 Norte 12 Nordeste 0 -- -- 73
2019-09-07 07:00:00 20.4 3 Nordeste 14 Este 0 -- -- 72
2019-09-07 06:00:00 20.3 7 Este 14 Nordeste 0 -- -- 76
2019-09-07 05:00:00 20.3 4 Norte 17 Nordeste 0 -- -- 76
2019-09-07 04:00:00 20.3 8 Nordeste 18 Nordeste 0 -- -- 78
2019-09-07 03:00:00 20.5 4 Nordeste 15 Nordeste 0 -- -- 77
2019-09-07 02:00:00 20.5 6 Nordeste 17 Nordeste 0 -- -- 78
2019-09-07 01:00:00 20.6 5 Norte 13 Norte 0 -- -- 79
2019-09-07 00:00:00 20.6 4 Este 20 Este 0 -- -- 76
2019-09-06 23:00:00 20.6 7 Este 17 Norte 0 -- -- 78
2019-09-06 22:00:00 20.8 9 Nordeste 17 Nordeste 0 -- -- 77
2019-09-06 21:00:00 20.9 10 Nordeste 19 Nordeste 0 -- -- 77
2019-09-06 20:00:00 20.9 7 Norte 23 Norte 0 -- -- 81
2019-09-06 19:00:00 21.1 6 Nordeste 21 Nordeste 0 -- -- 80
2019-09-06 18:00:00 21.2 8 Nordeste 24 Norte 0 -- -- 84
2019-09-06 17:00:00 21.8 10 Nordeste 23 Norte 0 -- -- 79
2019-09-06 16:00:00 22 10 Nordeste 25 Nordeste 0 -- -- 79
2019-09-06 15:00:00 22.5 11 Nordeste 22 Nordeste 0 -- -- 75
2019-09-06 14:00:00 22.8 9 Norte 20 Norte 0 -- -- 77
2019-09-06 13:00:00 23.2 9 Norte 23 Norte 0 -- -- 77
2019-09-06 12:00:00 22.3 10 Norte 23 Nordeste 0 -- -- 79
2019-09-06 11:00:00 21.6 11 Norte 21 Norte 0 -- -- 85
2019-09-06 10:00:00 21.3 10 Norte 22 Nordeste 0 -- -- 88
2019-09-06 09:00:00 21 8 Nordeste 19 Nordeste 0 -- -- 91
2019-09-06 08:00:00 20.9 6 Nordeste 18 Nordeste 0 -- -- 89
2019-09-06 07:00:00 20.8 7 Nordeste 14 Nordeste 0 -- -- 87
2019-09-06 06:00:00 20.6 3 Nordeste 11 Nordeste 0 -- -- 88
2019-09-06 05:00:00 20.6 6 Norte 16 Norte 0 -- -- 84
2019-09-06 04:00:00 20.8 6 Norte 18 Norte 0 -- -- 86
2019-09-06 03:00:00 21.2 6 Nordeste 19 Norte 0 -- -- 84
2019-09-06 02:00:00 21 6 Nordeste 19 Norte 0 -- -- 83
2019-09-06 01:00:00 20.9 5 Norte 19 Norte 0 -- -- 80
2019-09-06 00:00:00 21.1 7 Nordeste 27 Nordeste 0 -- -- 77
2019-09-05 23:00:00 21.3 7 Nordeste 21 Nordeste 0 -- -- 81
2019-09-05 22:00:00 21.4 6 Nordeste 15 Nordeste 0 -- -- 78
2019-09-05 21:00:00 20.9 0 Calma 12 Este 0 -- -- 72
2019-09-05 20:00:00 21.7 8 Nordeste 19 Nordeste 0 -- -- 69
2019-09-05 19:00:00 22.5 10 Nordeste 21 Nordeste 0 -- -- 74
2019-09-05 18:00:00 23.2 7 Nordeste 23 Nordeste 0 -- -- 71
2019-09-05 17:00:00 25.2 10 Norte 22 Nordeste 0 -- -- 55
2019-09-05 16:00:00 24.1 12 Nordeste 24 Nordeste 0 -- -- 67
2019-09-05 15:00:00 24.2 10 Nordeste 27 Nordeste 0 -- -- 67
2019-09-05 14:00:00 24.3 11 Nordeste 25 Nordeste 0 -- -- 67
2019-09-05 13:00:00 24.2 10 Nordeste 21 Nordeste 0 -- -- 63
2019-09-05 12:00:00 23.9 10 Nordeste 21 Nordeste 0 -- -- 67
2019-09-05 11:00:00 23.2 6 Nordeste 18 Nordeste 0 -- -- 69
2019-09-05 10:00:00 22.2 8 Nordeste 16 Norte 0 -- -- 72
2019-09-05 09:00:00 20.6 2 Oeste 6 Sudeste 0 -- -- 77
2019-09-05 08:00:00 19.6 2 Sudoeste 7 Sudoeste 0 -- -- 79
2019-09-05 07:00:00 20 3 Este 9 Nordeste 0 -- -- 80
2019-09-05 06:00:00 20.1 6 Nordeste 14 Nordeste 0 -- -- 79
2019-09-05 05:00:00 20.3 6 Nordeste 19 Nordeste 0 -- -- 81
2019-09-05 04:00:00 20.3 7 Nordeste 12 Norte 0 -- -- 81
2019-09-05 03:00:00 20.3 6 Nordeste 18 Nordeste 0 -- -- 78
2019-09-05 02:00:00 20.1 4 Nordeste 12 Nordeste 0 -- -- 79
2019-09-05 01:00:00 20.2 2 Norte 11 Nordeste 0 -- -- 77
2019-09-05 00:00:00 20.5 6 Nordeste 14 Nordeste 0 -- -- 77
2019-09-04 23:00:00 20.6 5 Nordeste 14 Nordeste 0 -- -- 76
2019-09-04 22:00:00 20.7 4 Norte 11 Nordeste 0 -- -- 75
2019-09-04 21:00:00 20.8 5 Nordeste 14 Nordeste 0 -- -- 75
2019-09-04 20:00:00 21.4 5 Norte 14 Nordeste 0 -- -- 73
2019-09-04 19:00:00 22.9 7 Nordeste 20 Nordeste 0 -- -- 67
2019-09-04 18:00:00 23.2 11 Nordeste 20 Nordeste 0 -- -- 64
2019-09-04 17:00:00 24 11 Nordeste 19 Nordeste 0 -- -- 55
2019-09-04 16:00:00 24.4 9 Nordeste 20 Norte 0 -- -- 56
2019-09-04 15:00:00 24.3 9 Nordeste 19 Norte 0 -- -- 56
2019-09-04 14:00:00 23.8 10 Nordeste 20 Norte 0 -- -- 56
2019-09-04 13:00:00 23.9 8 Nordeste 19 Nordeste 0 -- -- 54
2019-09-04 12:00:00 23.7 8 Nordeste 17 Norte 0 -- -- 53
2019-09-04 11:00:00 22.7 8 Nordeste 18 Nordeste 0 -- -- 70
2019-09-04 10:00:00 21.3 4 Nordeste 13 Norte 0 -- -- 76
2019-09-04 09:00:00 20.1 5 Norte 10 Norte 0 -- -- 78
2019-09-04 08:00:00 18.5 2 Norte 6 Sudoeste 0 -- -- 80
2019-09-04 07:00:00 18.8 4 Sudoeste 10 Noroeste 0 -- -- 80
2019-09-04 06:00:00 19.7 5 Oeste 12 Sudoeste 0 -- -- 79
2019-09-04 05:00:00 19.6 4 Sur 8 Sudeste 0 -- -- 77
2019-09-04 04:00:00 19.6 5 Sur 9 Sudeste 0 -- -- 74
2019-09-04 03:00:00 19.7 4 Sur 9 Sur 0 -- -- 74
2019-09-04 02:00:00 19.9 5 Sur 10 Sur 0 -- -- 72
2019-09-04 01:00:00 19.9 4 Sur 9 Sudeste 0 -- -- 71
2019-09-04 00:00:00 20 3 Sur 10 Sur 0 -- -- 72
2019-09-03 23:00:00 20.1 5 Sur 8 Sur 0 -- -- 69
2019-09-03 22:00:00 20.2 3 Sudeste 13 Sudoeste 0 -- -- 70
2019-09-03 21:00:00 20.7 2 Sudeste 8 Nordeste 0 -- -- 66
2019-09-03 20:00:00 21.6 4 Norte 16 Nordeste 0 -- -- 68
2019-09-03 19:00:00 23.1 9 Nordeste 18 Nordeste 0 -- -- 65
2019-09-03 18:00:00 23.7 7 Nordeste 18 Este 0 -- -- 62
2019-09-03 17:00:00 23.8 8 Nordeste 21 Norte 0 -- -- 66
2019-09-03 16:00:00 24 9 Nordeste 20 Norte 0 -- -- 66
2019-09-03 15:00:00 23.5 10 Nordeste 22 Nordeste 0 -- -- 68
2019-09-03 14:00:00 23.4 11 Nordeste 23 Nordeste 0 -- -- 68
2019-09-03 13:00:00 23.1 11 Nordeste 21 Nordeste 0 -- -- 68
2019-09-03 12:00:00 23 10 Nordeste 20 Este 0 -- -- 67
2019-09-03 11:00:00 22.9 6 Norte 19 Nordeste 0 -- -- 68
2019-09-03 10:00:00 21.9 7 Nordeste 14 Nordeste 0 -- -- 73
2019-09-03 09:00:00 19.8 4 Sur 8 Sur 0 -- -- 76
2019-09-03 08:00:00 18 4 Sur 9 Sur 0 -- -- 84
2019-09-03 07:00:00 18.2 2 Sur 5 Sur 0 -- -- 84
2019-09-03 06:00:00 19.5 3 Sur 6 Sur 0 -- -- 83
2019-09-03 05:00:00 19.9 4 Nordeste 12 Este 0 -- -- 81
2019-09-03 04:00:00 20.1 5 Nordeste 12 Nordeste 0 -- -- 82
2019-09-03 03:00:00 20 4 Nordeste 8 Nordeste 0 -- -- 83
2019-09-03 02:00:00 20 2 Este 13 Nordeste 0 -- -- 80
2019-09-03 01:00:00 20.2 4 Nordeste 14 Nordeste 0 -- -- 81
2019-09-03 00:00:00 20.4 4 Nordeste 17 Nordeste 0 -- -- 80
2019-09-02 23:00:00 20.4 5 Nordeste 19 Nordeste 0 -- -- 80
2019-09-02 22:00:00 20.7 7 Nordeste 14 Nordeste 0 -- -- 77
2019-09-02 21:00:00 20.8 4 Nordeste 15 Norte 0 -- -- 73
2019-09-02 20:00:00 21.2 5 Nordeste 15 Norte 0 -- -- 71
2019-09-02 19:00:00 21.8 5 Norte 16 Nordeste 0 -- -- 70
2019-09-02 18:00:00 22.2 8 Nordeste 18 Nordeste 0 -- -- 66
2019-09-02 17:00:00 23.1 9 Norte 22 Norte 0 -- -- 61
2019-09-02 16:00:00 24.3 9 Norte 23 Norte 0 -- -- 58
2019-09-02 15:00:00 24.1 11 Norte 22 Nordeste 0 -- -- 58
2019-09-02 14:00:00 23.4 8 Nordeste 21 Nordeste 0 -- -- 60
2019-09-02 13:00:00 23.2 10 Nordeste 19 Nordeste 0 -- -- 61
2019-09-02 12:00:00 21.7 5 Norte 14 Nordeste 0 -- -- 70
2019-09-02 11:00:00 20.9 7 Norte 17 Norte 0 -- -- 75
2019-09-02 10:00:00 21 6 Norte 16 Nordeste 0 -- -- 75
2019-09-02 09:00:00 20.5 3 Sudeste 11 Sudoeste 0 -- -- 77
2019-09-02 08:00:00 19.6 3 Sudeste 9 Norte 0 -- -- 78
2019-09-02 07:00:00 19.8 3 Oeste 13 Nordeste 0 -- -- 76
2019-09-02 06:00:00 20.2 8 Nordeste 16 Nordeste 0 -- -- 79
2019-09-02 05:00:00 20.2 5 Norte 23 Norte 0 -- -- 77
2019-09-02 04:00:00 20.4 8 Norte 18 Nordeste 0 -- -- 84
2019-09-02 03:00:00 20.6 5 Nordeste 17 Nordeste 0 -- -- 83
2019-09-02 02:00:00 20.5 5 Nordeste 20 Nordeste 0 -- -- 80
2019-09-02 01:00:00 20.5 8 Nordeste 20 Nordeste 0 -- -- 84
2019-09-02 00:00:00 20.6 8 Norte 21 Nordeste 0 -- -- 82
2019-09-01 23:00:00 20.7 6 Norte 17 Nordeste 0 -- -- 81
2019-09-01 22:00:00 20.8 5 Nordeste 14 Nordeste 0 -- -- 78
2019-09-01 21:00:00 20.9 4 Nordeste 19 Nordeste 0 -- -- 76
2019-09-01 20:00:00 21.1 6 Este 18 Este 0 -- -- 77
2019-09-01 19:00:00 21.5 8 Nordeste 17 Nordeste 0 -- -- 75
2019-09-01 18:00:00 22.4 8 Nordeste 18 Norte 0 -- -- 70
2019-09-01 17:00:00 22.8 8 Nordeste 17 Norte 0 -- -- 69
2019-09-01 16:00:00 23.5 9 Nordeste 19 Norte 0 -- -- 71
2019-09-01 15:00:00 23.8 8 Norte 22 Nordeste 0 -- -- 63
2019-09-01 14:00:00 23.3 9 Norte 22 Noroeste 0 -- -- 65
2019-09-01 13:00:00 22.4 9 Norte 24 Noroeste 0 -- -- 71
2019-09-01 12:00:00 21.8 9 Nordeste 22 Nordeste 0 -- -- 74
2019-09-01 11:00:00 22 8 Nordeste 20 Nordeste 0 -- -- 70
2019-09-01 10:00:00 21.3 6 Norte 19 Norte 0 -- -- 76
2019-09-01 09:00:00 20.9 8 Nordeste 20 Nordeste 0 -- -- 75
2019-09-01 08:00:00 20.7 5 Nordeste 13 Nordeste 0 -- -- 76
2019-09-01 07:00:00 20.6 8 Nordeste 17 Norte 0 -- -- 77
2019-09-01 06:00:00 20.6 5 Norte 17 Este 0 -- -- 76
2019-09-01 05:00:00 20.6 5 Nordeste 18 Nordeste 0 -- -- 79
2019-09-01 04:00:00 20.5 5 Nordeste 22 Norte 0 -- -- 80
2019-09-01 03:00:00 20.6 8 Nordeste 19 Nordeste -- -- -- 80
2019-09-01 02:00:00 20.8 4 Norte 12 Nordeste 0 -- -- 79
2019-09-01 01:00:00 20.8 4 Nordeste 17 Norte 0 -- -- 78
2019-09-01 00:00:00 20.9 6 Nordeste 15 Norte 0 -- -- 79
2019-08-31 23:00:00 20.9 5 Este 12 Nordeste 0 -- -- 78
2019-08-31 22:00:00 21 2 Nordeste 12 Este 0 -- -- 79
2019-08-31 21:00:00 20.9 6 Nordeste 21 Nordeste 0 -- -- 80
2019-08-31 20:00:00 21.4 7 Nordeste 18 Nordeste 0 -- -- 83
2019-08-31 19:00:00 22 5 Nordeste 19 Nordeste 0 -- -- 77
2019-08-31 18:00:00 22.9 10 Nordeste 21 Nordeste 0 -- -- 75
2019-08-31 17:00:00 23.4 9 Norte 23 Norte 0 -- -- 71
2019-08-31 16:00:00 23.5 7 Norte 26 Norte 0 -- -- 69
2019-08-31 15:00:00 24.2 9 Norte 20 Norte 0 -- -- 68
2019-08-31 14:00:00 22.6 10 Nordeste 18 Nordeste 0 -- -- 72
2019-08-31 13:00:00 22.2 6 Norte 20 Nordeste 0 -- -- 74
2019-08-31 12:00:00 22.2 7 Nordeste 15 Nordeste 0 -- -- 75
2019-08-31 11:00:00 21.5 6 Este 17 Nordeste 0 -- -- 76
2019-08-31 10:00:00 21.1 5 Este 19 Este 0 -- -- 78
2019-08-31 09:00:00 20.7 6 Nordeste 10 Norte 0 -- -- 78
2019-08-31 08:00:00 20.6 2 Norte 11 Nordeste 0 -- -- 78
2019-08-31 07:00:00 20.6 5 Nordeste 13 Nordeste 0 -- -- 80
2019-08-31 06:00:00 21 3 Sudeste 10 Nordeste 0 -- -- 77
2019-08-31 05:00:00 20.8 5 Nordeste 15 Norte 0 -- -- 80
2019-08-31 04:00:00 21.2 3 Sudeste 8 Sur 0 -- -- 76
2019-08-31 03:00:00 21.2 4 Sur 10 Nordeste 0 -- -- 77
2019-08-31 02:00:00 21.2 3 Nordeste 10 Nordeste 0 -- -- 81
2019-08-31 01:00:00 21.2 4 Nordeste 10 Nordeste 0 -- -- 83
2019-08-31 00:00:00 21.4 3 Norte 11 Nordeste 0 -- -- 80
2019-08-30 23:00:00 21.2 4 Nordeste 12 Nordeste 0 -- -- 82
2019-08-30 22:00:00 21.4 6 Nordeste 14 Nordeste 0 -- -- 82
2019-08-30 21:00:00 21.6 6 Nordeste 15 Este 0 -- -- 79
2019-08-30 20:00:00 22 5 Nordeste 17 Nordeste 0 -- -- 79
2019-08-30 19:00:00 23.3 6 Nordeste 19 Nordeste 0 -- -- 73
2019-08-30 18:00:00 24 9 Nordeste 23 Norte 0 -- -- 71
2019-08-30 17:00:00 24.5 8 Nordeste 23 Nordeste 0 -- -- 70
2019-08-30 16:00:00 24 10 Nordeste 23 Nordeste 0 -- -- 71
2019-08-30 15:00:00 24.5 10 Nordeste 24 Nordeste 0 -- -- 67
2019-08-30 14:00:00 24.2 10 Nordeste 27 Nordeste 0 -- -- 67
2019-08-30 13:00:00 24 10 Nordeste 21 Nordeste 0 -- -- 68
2019-08-30 12:00:00 23 8 Nordeste 20 Nordeste 0 -- -- 73
2019-08-30 11:00:00 23 9 Nordeste 19 Nordeste 0 -- -- 74
2019-08-30 10:00:00 22.5 5 Nordeste 9 Nordeste 0 -- -- 78
2019-08-30 09:00:00 19.5 6 Sur 8 Sur 0 -- -- 86
2019-08-30 08:00:00 18.7 4 Noroeste 12 Sur 0 -- -- 84
2019-08-30 07:00:00 18.1 4 Sur 9 Sur 0 -- -- 85
2019-08-30 06:00:00 19 7 Sur 12 Sur 0 -- -- 84
2019-08-30 05:00:00 19.8 6 Sur 10 Sur 0 -- -- 81
2019-08-30 04:00:00 20.4 4 Sudeste 11 Sur 0 -- -- 78
2019-08-30 03:00:00 20.6 6 Sur 12 Sur 0 -- -- 75
2019-08-30 02:00:00 20.8 3 Sudoeste 15 Sur 0 -- -- 77
2019-08-30 01:00:00 20.4 7 Sur 11 Sur 0 -- -- 79
2019-08-30 00:00:00 20.2 6 Sur 9 Sur 0 -- -- 80
2019-08-29 23:00:00 20.5 4 Sur 7 Sur 0 -- -- 79
2019-08-29 22:00:00 21.1 3 Sudeste 8 Norte 0 -- -- 83
2019-08-29 21:00:00 21.4 3 Nordeste 11 Norte 0 -- -- 82
2019-08-29 20:00:00 21.7 3 Sudeste 13 Este 0 -- -- 79
2019-08-29 19:00:00 21.8 4 Nordeste 18 Nordeste 0 -- -- 80
2019-08-29 18:00:00 22.2 9 Nordeste 19 Este 0 -- -- 79
2019-08-29 17:00:00 22.7 9 Nordeste 19 Nordeste 0 -- -- 77
2019-08-29 16:00:00 24.1 10 Norte 26 Nordeste 0 -- -- 71
2019-08-29 15:00:00 24.3 10 Nordeste 22 Nordeste 0 -- -- 71
2019-08-29 14:00:00 25 9 Norte 24 Nordeste 0 -- -- 67
2019-08-29 13:00:00 24.5 9 Nordeste 23 Nordeste 0 -- -- 67
2019-08-29 12:00:00 23.8 9 Nordeste 22 Nordeste 0 -- -- 70
2019-08-29 11:00:00 23.2 7 Nordeste 24 Nordeste 0 -- -- 71
2019-08-29 10:00:00 22.4 4 Norte 12 Nordeste 0 -- -- 73
2019-08-29 09:00:00 20.8 3 Sudeste 12 Sur 0 -- -- 78
2019-08-29 08:00:00 20.5 4 Sur 13 Este 0 -- -- 76
2019-08-29 07:00:00 20.5 5 Nordeste 15 Nordeste 0 -- -- 79
2019-08-29 06:00:00 20.5 5 Sudeste 14 Nordeste 0 -- -- 79
2019-08-29 05:00:00 20.6 4 Nordeste 12 Nordeste 0 -- -- 86
2019-08-29 04:00:00 20.8 4 Nordeste 14 Norte 0 -- -- 84
2019-08-29 03:00:00 21 5 Nordeste 15 Este 0 -- -- 81
2019-08-29 02:00:00 20.8 5 Sudeste 16 Este 0 -- -- 78
2019-08-29 01:00:00 21 3 Nordeste 14 Norte 0 -- -- 81
2019-08-29 00:00:00 21 0 Calma 15 Nordeste 0 -- -- 81
2019-08-28 23:00:00 21 5 Nordeste 12 Nordeste 0 -- -- 81
2019-08-28 22:00:00 21.2 3 Nordeste 12 Nordeste 0 -- -- 79
2019-08-28 21:00:00 21.3 4 Nordeste 12 Nordeste 0 -- -- 81
2019-08-28 20:00:00 21.7 5 Nordeste 15 Nordeste 0 -- -- 80
2019-08-28 19:00:00 22.7 7 Nordeste 21 Noroeste 0 -- -- 75
2019-08-28 18:00:00 24.2 8 Norte 20 Norte 0 -- -- 69
2019-08-28 17:00:00 24 10 Nordeste 20 Norte 0 -- -- 68
2019-08-28 16:00:00 23.3 9 Nordeste 21 Nordeste 0 -- -- 73
2019-08-28 15:00:00 23.5 10 Nordeste 19 Nordeste 0 -- -- 71
2019-08-28 14:00:00 23.3 10 Nordeste 21 Nordeste 0 -- -- 72
2019-08-28 13:00:00 22.4 8 Nordeste 20 Nordeste 0 -- -- 77
2019-08-28 12:00:00 22 7 Nordeste 23 Norte 0 -- -- 76
2019-08-28 11:00:00 23.7 6 Sur 22 Sur 0 -- -- 68
2019-08-28 10:00:00 21.4 5 Nordeste 13 Nordeste 0 -- -- 75
2019-08-28 09:00:00 20.9 3 Sudoeste 6 Sudeste 0 -- -- 74
2019-08-28 08:00:00 20.4 4 Sur 8 Sur 0 -- -- 76
2019-08-28 07:00:00 20.4 4 Este 9 Nordeste 0 -- -- 78
2019-08-28 06:00:00 20.4 3 Norte 14 Nordeste 0 -- -- 78
2019-08-28 05:00:00 20.4 6 Nordeste 17 Nordeste 0 -- -- 83
2019-08-28 04:00:00 20.9 2 Sur 9 Nordeste 0 -- -- 78
2019-08-28 03:00:00 21 3 Nordeste 10 Sur 0 -- -- 81
2019-08-28 02:00:00 21 4 Este 9 Sudoeste 0 -- -- 82
2019-08-28 01:00:00 21 0 Calma 11 Noroeste 0 -- -- 84
2019-08-28 00:00:00 21.4 3 Norte 6 Oeste 0 -- -- 81
2019-08-27 23:00:00 21.5 2 Sur 10 Oeste 0 -- -- 80
2019-08-27 22:00:00 21.3 4 Nordeste 10 Este 0 -- -- 83
2019-08-27 21:00:00 21.5 4 Nordeste 12 Norte 0 -- -- 81
2019-08-27 20:00:00 21.5 5 Norte 16 Norte 0 -- -- 81
2019-08-27 19:00:00 21.6 7 Nordeste 21 Norte 0 -- -- 81
2019-08-27 18:00:00 22.3 10 Nordeste 19 Noroeste 0 -- -- 78
2019-08-27 17:00:00 24.3 10 Norte 22 Norte 0 -- -- 71
2019-08-27 16:00:00 24.2 10 Nordeste 25 Nordeste 0 -- -- 71
2019-08-27 15:00:00 24.7 9 Nordeste 22 Nordeste 0 -- -- 66
2019-08-27 14:00:00 24.2 10 Nordeste 25 Nordeste 0 -- -- 68
2019-08-27 13:00:00 24 9 Nordeste 23 Nordeste 0 -- -- 69
2019-08-27 12:00:00 23.6 8 Norte 21 Nordeste 0 -- -- 71
2019-08-27 11:00:00 22.8 6 Nordeste 17 Nordeste 0 -- -- 73
2019-08-27 10:00:00 21.1 6 Nordeste 12 Norte 0 -- -- 79
2019-08-27 09:00:00 20.6 0 Calma 7 Sudeste 0 -- -- 82
2019-08-27 08:00:00 20.2 3 Sur 9 Sur 0 -- -- 80
2019-08-27 07:00:00 20.5 3 Sur 9 Sur 0 -- -- 79
2019-08-27 06:00:00 20.6 4 Sur 7 Sudeste 0 -- -- 80
2019-08-27 05:00:00 20.6 2 Norte 5 Nordeste 0 -- -- 84
2019-08-27 04:00:00 20.7 0 Calma 6 Sudeste 0 -- -- 84
2019-08-27 03:00:00 20.8 0 Calma 11 Norte 0 -- -- 83
2019-08-27 02:00:00 21 4 Este 14 Nordeste 0 -- -- 81
2019-08-27 01:00:00 21 2 Sudoeste 8 Nordeste 0 -- -- 83
2019-08-27 00:00:00 21.1 3 Norte 14 Nordeste 0 -- -- 83
2019-08-26 23:00:00 21 5 Nordeste 12 Nordeste 0 -- -- 83
2019-08-26 22:00:00 21.1 4 Nordeste 12 Nordeste 0 -- -- 85
2019-08-26 21:00:00 21.4 5 Nordeste 12 Nordeste 0 -- -- 83
2019-08-26 20:00:00 21.7 6 Nordeste 13 Nordeste 0 -- -- 82
2019-08-26 19:00:00 21.8 4 Este 15 Este 0 -- -- 82
2019-08-26 18:00:00 22.7 4 Este 13 Noroeste 0 -- -- 81
2019-08-26 17:00:00 22.9 5 Nordeste 19 Norte 0 -- -- 78
2019-08-26 16:00:00 23.9 10 Nordeste 23 Norte 0 -- -- 76
2019-08-26 15:00:00 22.3 8 Nordeste 17 Norte 0 -- -- 82
2019-08-26 14:00:00 22.6 5 Norte 15 Nordeste 0 -- -- 82
2019-08-26 13:00:00 22 5 Nordeste 15 Norte 0 -- -- 85
2019-08-26 12:00:00 21.9 4 Nordeste 15 Nordeste 0 -- -- 88
2019-08-26 11:00:00 22.2 6 Norte 16 Nordeste 0 -- -- 84
2019-08-26 10:00:00 22 4 Nordeste 9 Sur 0 -- -- 86
2019-08-26 09:00:00 21.5 5 Este 9 Este 0 -- -- 90
2019-08-26 08:00:00 21.4 4 Este 9 Este 0 -- -- 90
2019-08-26 07:00:00 21.5 3 Noroeste 8 Sudoeste 0 -- -- 84
2019-08-26 06:00:00 21.4 3 Nordeste 7 Sur 0 -- -- 87
2019-08-26 05:00:00 21.2 5 Sur 14 Sur 0 -- -- 84
2019-08-26 04:00:00 21 7 Oeste 14 Oeste 0 -- -- 87
2019-08-26 03:00:00 20.9 6 Nordeste 13 Nordeste 0 -- -- 87
2019-08-26 02:00:00 20.2 4 Sudeste 6 Este 0 -- -- 91
2019-08-26 01:00:00 20.6 2 Sur 7 Sur 0 -- -- 87
2019-08-26 00:00:00 21.4 5 Sudeste 13 Sudeste 0 -- -- 89
2019-08-25 23:00:00 21.8 4 Este 5 Nordeste 0 -- -- 85
2019-08-25 22:00:00 22.3 4 Este 12 Sur 0 -- -- 83
2019-08-25 21:00:00 23.2 5 Este 14 Este 0 -- -- 75
2019-08-25 20:00:00 26.3 4 Sudoeste 11 Sur 0 -- -- 59
2019-08-25 19:00:00 26.3 7 Sudoeste 23 Este 0 -- -- 66
2019-08-25 18:00:00 25.2 7 Nordeste 23 Norte 0 -- -- 73
2019-08-25 17:00:00 25.5 8 Nordeste 27 Nordeste 0 -- -- 73
2019-08-25 16:00:00 24.8 12 Nordeste 25 Este 0 -- -- 76
2019-08-25 15:00:00 25.3 10 Nordeste 19 Nordeste 0 -- -- 74
2019-08-25 14:00:00 25.7 4 Noroeste 18 Nordeste 0 -- -- 72
2019-08-25 13:00:00 25.1 9 Nordeste 21 Nordeste 0 -- -- 71
2019-08-25 12:00:00 24.8 7 Este 17 Norte 0 -- -- 74
2019-08-25 11:00:00 24.1 8 Nordeste 15 Nordeste 0 -- -- 74
2019-08-25 10:00:00 22.4 3 Sur 9 Sudoeste 0 -- -- 80
2019-08-25 09:00:00 21 4 Sur 10 Este 0 -- -- 88
2019-08-25 08:00:00 19.9 4 Sudeste 10 Este 0 -- -- 91
2019-08-25 07:00:00 19.9 5 Este 12 Sur 0 -- -- 92
2019-08-25 06:00:00 19.2 3 Este 8 Sur 0 -- -- 90
2019-08-25 05:00:00 19.5 4 Sudeste 9 Sudeste 0 -- -- 90
2019-08-25 04:00:00 19.9 3 Sur 10 Sur 0 -- -- 89
2019-08-25 03:00:00 20.6 5 Sudeste 9 Este 0 -- -- 89
2019-08-25 02:00:00 21 4 Este 11 Este 0 -- -- 90
2019-08-25 01:00:00 21.3 6 Sudeste 16 Este 0 -- -- 89
2019-08-25 00:00:00 21.6 7 Sudeste 14 Este 0 -- -- 83
2019-08-24 23:00:00 22 6 Sudeste 20 Sur 0 -- -- 83
2019-08-24 22:00:00 22 5 Sudeste 10 Sudeste 0 -- -- 84
2019-08-24 21:00:00 22.7 4 Nordeste 10 Este 0 -- -- 82
2019-08-24 20:00:00 23 6 Nordeste 13 Este 0 -- -- 81
2019-08-24 19:00:00 24.1 6 Nordeste 18 Nordeste 0 -- -- 77
2019-08-24 18:00:00 25.1 10 Nordeste 22 Nordeste 0 -- -- 73
2019-08-24 17:00:00 29.6 6 Este 12 Este 0 -- -- 36
2019-08-24 16:00:00 25.9 4 Norte 18 Nordeste 0 -- -- 71
2019-08-24 15:00:00 26.1 7 Sudoeste 19 Nordeste 0 -- -- 65
2019-08-24 14:00:00 23.9 8 Nordeste 17 Este 0 -- -- 78
2019-08-24 13:00:00 24.1 9 Nordeste 22 Norte 0 -- -- 78
2019-08-24 12:00:00 24.2 8 Nordeste 19 Nordeste 0 -- -- 75
2019-08-24 11:00:00 23.7 7 Nordeste 21 Nordeste 0 -- -- 77
2019-08-24 10:00:00 22.5 3 Nordeste 8 Norte 0 -- -- 81
2019-08-24 09:00:00 20.4 4 Sudeste 10 Sur 0 -- -- 86
2019-08-24 08:00:00 18.8 4 Sudeste 12 Sur 0 -- -- 90
2019-08-24 07:00:00 18.6 5 Sudeste 9 Sur 0 -- -- 90
2019-08-24 06:00:00 18.9 5 Sur 9 Sur 0 -- -- 90
2019-08-24 05:00:00 18.3 5 Sur 8 Sudeste 0 -- -- 91
2019-08-24 04:00:00 18.5 3 Este 9 Sudeste 0 -- -- 91
2019-08-24 03:00:00 18.7 4 Sur 6 Sudeste 0 -- -- 90
2019-08-24 02:00:00 19 3 Este 6 Sudeste 0 -- -- 90
2019-08-24 01:00:00 19.3 3 Sudeste 5 Sudeste 0 -- -- 87
2019-08-24 00:00:00 20.1 3 Sudeste 6 Sudeste 0 -- -- 85
2019-08-23 23:00:00 20.9 2 Sudeste 7 Sudeste 0 -- -- 86
2019-08-23 22:00:00 21.4 4 Sudeste 9 Sudeste 0 -- -- 84
2019-08-23 21:00:00 22 4 Sudeste 10 Sudeste 0 -- -- 82
2019-08-23 20:00:00 22.7 5 Sudeste 15 Nordeste 0 -- -- 78
2019-08-23 19:00:00 23.6 7 Nordeste 19 Nordeste 0 -- -- 74
2019-08-23 18:00:00 24.1 8 Nordeste 21 Nordeste 0 -- -- 72
2019-08-23 17:00:00 24.8 9 Nordeste 23 Nordeste 0 -- -- 69
2019-08-23 16:00:00 24.5 11 Nordeste 23 Nordeste 0 -- -- 70
2019-08-23 15:00:00 24.8 10 Nordeste 22 Nordeste 0 -- -- 68
2019-08-23 14:00:00 24.5 10 Nordeste 25 Este 0 -- -- 69
2019-08-23 13:00:00 23.7 11 Nordeste 23 Nordeste 0 -- -- 71
2019-08-23 12:00:00 24 8 Nordeste 22 Nordeste 0 -- -- 71
2019-08-23 11:00:00 23.3 7 Nordeste 18 Nordeste 0 -- -- 73
2019-08-23 10:00:00 22.9 4 Oeste 12 Nordeste 0 -- -- 76
2019-08-23 09:00:00 20 3 Sur 10 Sur 0 -- -- 81
2019-08-23 08:00:00 17.5 5 Sudeste 8 Sur 0 -- -- 89
2019-08-23 07:00:00 17.2 6 Sudeste 8 Sur 0 -- -- 89
2019-08-23 06:00:00 16.9 3 Sur 9 Sur 0 -- -- 89
2019-08-23 05:00:00 16.9 4 Sudeste 8 Sur 0 -- -- 89
2019-08-23 04:00:00 17.3 5 Sur 10 Sur 0 -- -- 87
2019-08-23 03:00:00 17.3 3 Sudeste 8 Sur 0 -- -- 86
2019-08-23 02:00:00 17.7 4 Sur 9 Sur 0 -- -- 85
2019-08-23 01:00:00 18.4 5 Sur 8 Sur 0 -- -- 82
2019-08-23 00:00:00 19.5 5 Sur 8 Sur 0 -- -- 80
2019-08-22 23:00:00 20.5 4 Sudeste 6 Sudeste 0 -- -- 80
2019-08-22 22:00:00 20.8 2 Nordeste 8 Nordeste 0 -- -- 81
2019-08-22 21:00:00 21.1 2 Nordeste 12 Nordeste 0 -- -- 80
2019-08-22 20:00:00 21.8 5 Nordeste 16 Nordeste 0 -- -- 78
2019-08-22 19:00:00 23.3 8 Nordeste 19 Norte 0 -- -- 72
2019-08-22 18:00:00 23.8 8 Nordeste 22 Nordeste 0 -- -- 70
2019-08-22 17:00:00 24.2 9 Nordeste 21 Nordeste 0 -- -- 68
2019-08-22 16:00:00 24.4 10 Norte 24 Nordeste 0 -- -- 67
2019-08-22 15:00:00 24 12 Nordeste 26 Norte 0 -- -- 68
2019-08-22 14:00:00 23.8 10 Nordeste 25 Nordeste 0 -- -- 67
2019-08-22 13:00:00 23.8 8 Nordeste 23 Norte 0 -- -- 66
2019-08-22 12:00:00 23.1 7 Nordeste 19 Nordeste 0 -- -- 68
2019-08-22 11:00:00 22 8 Nordeste 19 Nordeste 0 -- -- 71
2019-08-22 10:00:00 21 6 Nordeste 16 Nordeste 0 -- -- 74
2019-08-22 09:00:00 20.3 6 Este 15 Este 0 -- -- 77
2019-08-22 08:00:00 20.1 4 Norte 14 Nordeste 0 -- -- 80
2019-08-22 07:00:00 20 2 Este 12 Nordeste 0 -- -- 79
2019-08-22 06:00:00 20 3 Este 13 Norte 0 -- -- 80
2019-08-22 05:00:00 19.9 5 Este 17 Norte 0 -- -- 79
2019-08-22 04:00:00 20 8 Nordeste 18 Nordeste 0 -- -- 78
2019-08-22 03:00:00 20 5 Este 20 Nordeste 0 -- -- 78
2019-08-22 02:00:00 20.2 5 Norte 19 Nordeste 0 -- -- 79
2019-08-22 01:00:00 20.2 9 Nordeste 25 Nordeste 0 -- -- 79
2019-08-22 00:00:00 20.4 9 Nordeste 22 Nordeste 0 -- -- 78
2019-08-21 23:00:00 20.4 8 Norte 25 Nordeste 0 -- -- 79
2019-08-21 22:00:00 20.5 8 Norte 25 Nordeste 0 -- -- 80
2019-08-21 21:00:00 20.7 8 Nordeste 22 Nordeste 0 -- -- 78
2019-08-21 20:00:00 21.1 8 Norte 22 Nordeste 0 -- -- 77
2019-08-21 19:00:00 21.5 10 Nordeste 27 Nordeste 0 -- -- 75
2019-08-21 18:00:00 22.1 9 Norte 24 Nordeste 0 -- -- 71
2019-08-21 17:00:00 22.5 9 Norte 26 Nordeste 0 -- -- 74
2019-08-21 16:00:00 22.7 10 Norte 25 Nordeste 0 -- -- 72
2019-08-21 15:00:00 22.5 10 Nordeste 25 Nordeste 0 -- -- 76
2019-08-21 14:00:00 22.5 9 Norte 24 Norte 0 -- -- 74
2019-08-21 13:00:00 22 8 Norte 22 Norte 0 -- -- 76
2019-08-21 12:00:00 21.4 9 Norte 27 Norte 0 -- -- 77
2019-08-21 11:00:00 21.1 8 Nordeste 24 Este 0 -- -- 80
2019-08-21 10:00:00 20.7 7 Nordeste 26 Este 0 -- -- 82
2019-08-21 09:00:00 20.5 10 Nordeste 24 Noroeste 0 -- -- 84
2019-08-21 08:00:00 20.4 9 Nordeste 27 Nordeste 0 -- -- 84
2019-08-21 07:00:00 20.2 9 Nordeste 26 Nordeste 0 -- -- 86
2019-08-21 06:00:00 20.4 9 Norte 25 Norte 0 -- -- 85
2019-08-21 05:00:00 20.5 6 Nordeste 24 Nordeste 0 -- -- 83
2019-08-21 04:00:00 20.5 9 Norte 24 Nordeste 0 -- -- 83
2019-08-21 03:00:00 20.6 6 Nordeste 21 Nordeste 0 -- -- 85
2019-08-21 02:00:00 20.6 10 Nordeste 22 Nordeste 0 -- -- 85
2019-08-21 01:00:00 20.8 5 Norte 19 Nordeste 0 -- -- 83
2019-08-21 00:00:00 20.9 6 Nordeste 18 Norte 0 -- -- 83